When you browse on this site, cookies collect data to enhance your experience and personalize the content and advertising you see.
Visit our Privacy Policy to learn more. By continuing to use the site, you agree to this use of cookies and data.
  • In Slovakia
  • List of Countries
  • For 7 days
  • Water Temperature
  • Satellite Maps
  • Weather Map
  • Weather Widgets
  • user-avatar
    Login

    Hourly Weather Namibe

    Today, 14 December, Friday

    Time Temperature Precipitation Wind Pressure Humidity
    00:00 +27°C° 0 mm 3 mps 759 mmHg 55%
    01:00 +26°C° 0 mm 3 mps 759 mmHg 59%
    02:00 +26°C° 0 mm 3 mps 759 mmHg 62%
    03:00 +25°C° 0 mm 3 mps 759 mmHg 65%
    04:00 +24°C° 0 mm 3 mps 759 mmHg 68%
    05:00 +24°C° 0 mm 3 mps 759 mmHg 69%
    06:00 +24°C° 0 mm 3 mps 759 mmHg 69%
    07:00 +24°C° 0 mm 3 mps 760 mmHg 69%
    08:00 +26°C° 0 mm 3 mps 760 mmHg 60%
    09:00 +28°C° 0 mm 3 mps 760 mmHg 50%
    10:00 +30°C° 0 mm 3 mps 760 mmHg 41%
    11:00 +32°C° 0 mm 4 mps 759 mmHg 39%
    12:00 +33°C° 0 mm 5 mps 758 mmHg 38%
    13:00 +34°C° 0 mm 6 mps 758 mmHg 37%
    14:00 +33°C° 0 mm 6 mps 757 mmHg 39%
    15:00 +32°C° 0 mm 6 mps 757 mmHg 42%
    16:00 +30°C° 0 mm 6 mps 757 mmHg 44%
    17:00 +29°C° 0 mm 5 mps 757 mmHg 49%
    18:00 +28°C° 0 mm 4 mps 758 mmHg 53%
    19:00 +27°C° 0 mm 4 mps 758 mmHg 58%
    20:00 +27°C° 0 mm 4 mps 758 mmHg 60%
    21:00 +26°C° 0 mm 3 mps 759 mmHg 63%
    22:00 +26°C° 0 mm 3 mps 759 mmHg 65%
    23:00 +26°C° 0 mm 3 mps 759 mmHg 67%

    Tomorrow, 15 December, Saturday

    Time Temperature Precipitation Wind Pressure Humidity
    00:00 +25°C° 0 mm 3 mps 759 mmHg 69%
    01:00 +25°C° 0 mm 3 mps 759 mmHg 70%
    02:00 +25°C° 0 mm 2 mps 759 mmHg 72%
    03:00 +25°C° 0 mm 2 mps 758 mmHg 74%
    04:00 +24°C° 0 mm 2 mps 758 mmHg 76%
    05:00 +25°C° 0 mm 2 mps 758 mmHg 74%
    06:00 +25°C° 0 mm 2 mps 759 mmHg 73%
    07:00 +25°C° 0 mm 2 mps 759 mmHg 72%
    08:00 +27°C° 0 mm 3 mps 759 mmHg 62%
    09:00 +30°C° 0 mm 3 mps 759 mmHg 53%
    10:00 +33°C° 0 mm 4 mps 760 mmHg 43%
    11:00 +33°C° 0 mm 5 mps 759 mmHg 42%
    12:00 +34°C° 0 mm 6 mps 759 mmHg 42%
    13:00 +35°C° 0 mm 6 mps 758 mmHg 41%
    14:00 +34°C° 0 mm 6 mps 758 mmHg 44%
    15:00 +33°C° 0 mm 6 mps 757 mmHg 46%
    16:00 +32°C° 0 mm 6 mps 757 mmHg 49%
    17:00 +30°C° 0 mm 6 mps 757 mmHg 56%
    18:00 +28°C° 0 mm 5 mps 758 mmHg 64%
    19:00 +26°C° 0 mm 5 mps 759 mmHg 71%
    20:00 +26°C° 0 mm 4 mps 759 mmHg 72%
    21:00 +26°C° 0 mm 3 mps 760 mmHg 73%
    22:00 +26°C° 0 mm 3 mps 760 mmHg 74%
    23:00 +26°C° 0 mm 3 mps 760 mmHg 74%

    Day after tomorrow, 16 December, Sunday

    Time Temperature Precipitation Wind Pressure Humidity
    00:00 +26°C° 0 mm 3 mps 760 mmHg 75%
    01:00 +26°C° 0 mm 3 mps 759 mmHg 76%
    02:00 +26°C° 0 mm 2 mps 759 mmHg 77%
    03:00 +26°C° 0 mm 2 mps 759 mmHg 78%
    04:00 +25°C° 0 mm 2 mps 759 mmHg 79%
    05:00 +25°C° 0 mm 2 mps 759 mmHg 80%
    06:00 +25°C° 0 mm 2 mps 759 mmHg 81%
    07:00 +25°C° 0 mm 1 mps 760 mmHg 81%
    08:00 +27°C° 0 mm 2 mps 760 mmHg 72%
    09:00 +29°C° 0 mm 2 mps 760 mmHg 62%
    10:00 +31°C° 0 mm 3 mps 760 mmHg 52%
    11:00 +33°C° 0 mm 4 mps 759 mmHg 48%
    12:00 +34°C° 0 mm 4 mps 758 mmHg 45%
    13:00 +36°C° 0 mm 5 mps 758 mmHg 41%
    14:00 +35°C° 0 mm 5 mps 757 mmHg 43%
    15:00 +34°C° 0 mm 5 mps 757 mmHg 46%
    16:00 +33°C° 0 mm 5 mps 757 mmHg 48%
    17:00 +30°C° 0 mm 4 mps 757 mmHg 56%
    18:00 +29°C° 0 mm 4 mps 758 mmHg 64%
    19:00 +27°C° 0 mm 3 mps 758 mmHg 71%
    20:00 +27°C° 0 mm 3 mps 759 mmHg 73%
    21:00 +27°C° 0 mm 2 mps 759 mmHg 75%
    22:00 +26°C° 0 mm 1 mps 760 mmHg 77%
    23:00 +26°C° 0 mm 1 mps 759 mmHg 78%

    17 December, Monday

    Time Temperature Precipitation Wind Pressure Humidity
    00:00 +26°C° 0 mm 1 mps 759 mmHg 78%
    01:00 +26°C° 0 mm 2 mps 759 mmHg 79%
    02:00 +26°C° 0 mm 1 mps 758 mmHg 80%
    03:00 +26°C° 0 mm 1 mps 758 mmHg 81%
    04:00 +24°C° 0 mm 0 mps 758 mmHg 82%
    05:00 +24°C° 0 mm 0 mps 758 mmHg 81%
    06:00 +24°C° 0 mm 0 mps 759 mmHg 80%
    07:00 +24°C° 0 mm 0 mps 759 mmHg 80%
    08:00 +28°C° 0 mm 2 mps 759 mmHg 70%
    09:00 +30°C° 0 mm 3 mps 759 mmHg 61%
    10:00 +33°C° 0 mm 4 mps 759 mmHg 52%
    11:00 +34°C° 0 mm 4 mps 759 mmHg 51%
    12:00 +34°C° 0 mm 5 mps 758 mmHg 50%
    13:00 +35°C° 0 mm 5 mps 757 mmHg 49%
    14:00 +34°C° 0 mm 5 mps 757 mmHg 50%
    15:00 +34°C° 0 mm 5 mps 757 mmHg 51%
    16:00 +33°C° 0 mm 5 mps 756 mmHg 52%
    17:00 +30°C° 0 mm 5 mps 757 mmHg 59%
    18:00 +29°C° 0 mm 4 mps 757 mmHg 65%
    19:00 +27°C° 0 mm 3 mps 758 mmHg 72%
    20:00 +27°C° 0 mm 2 mps 759 mmHg 74%
    21:00 +27°C° 0 mm 2 mps 759 mmHg 75%
    22:00 +27°C° 0 mm 1 mps 760 mmHg 76%
    23:00 +26°C° 0 mm 1 mps 760 mmHg 77%

    18 December, Tuesday

    Time Temperature Precipitation Wind Pressure Humidity
    00:00 +26°C° 0 mm 1 mps 759 mmHg 77%
    01:00 +26°C° 0 mm 2 mps 759 mmHg 78%
    02:00 +26°C° 0 mm 2 mps 759 mmHg 78%
    03:00 +26°C° 0 mm 1 mps 758 mmHg 79%
    04:00 +26°C° 0 mm 1 mps 758 mmHg 79%
    05:00 +26°C° 0 mm 1 mps 758 mmHg 77%
    06:00 +27°C° 0 mm 1 mps 759 mmHg 75%
    07:00 +27°C° 0 mm 1 mps 759 mmHg 72%
    08:00 +29°C° 0 mm 1 mps 759 mmHg 66%
    09:00 +30°C° 0 mm 2 mps 759 mmHg 59%
    10:00 +32°C° 0 mm 2 mps 759 mmHg 52%
    11:00 +34°C° 0 mm 3 mps 758 mmHg 48%
    12:00 +35°C° 0 mm 4 mps 758 mmHg 44%
    13:00 +37°C° 0 mm 5 mps 757 mmHg 39%
    14:00 +36°C° 0 mm 5 mps 757 mmHg 40%
    15:00 +35°C° 0 mm 5 mps 756 mmHg 41%
    16:00 +35°C° 0 mm 5 mps 756 mmHg 42%
    17:00 +33°C° 0 mm 4 mps 756 mmHg 48%
    18:00 +32°C° 0 mm 4 mps 757 mmHg 53%
    19:00 +29°C° 0 mm 3 mps 758 mmHg 59%
    20:00 +29°C° 0 mm 3 mps 758 mmHg 64%
    21:00 +28°C° 0 mm 3 mps 759 mmHg 68%
    22:00 +27°C° 0 mm 3 mps 759 mmHg 73%
    23:00 +27°C° 0 mm 3 mps 759 mmHg 75%

    19 December, Wednesday

    Time Temperature Precipitation Wind Pressure Humidity
    00:00 +27°C° 0 mm 3 mps 759 mmHg 76%
    01:00 +26°C° 0 mm 2 mps 758 mmHg 78%
    02:00 +26°C° 0 mm 2 mps 758 mmHg 79%
    03:00 +26°C° 0 mm 2 mps 758 mmHg 80%
    04:00 +26°C° 0 mm 1 mps 758 mmHg 80%
    05:00 +26°C° 0 mm 1 mps 758 mmHg 79%
    06:00 +26°C° 0 mm 1 mps 759 mmHg 77%
    07:00 +27°C° 0 mm 1 mps 759 mmHg 76%
    08:00 +29°C° 0 mm 1 mps 759 mmHg 65%
    09:00 +30°C° 0 mm 2 mps 759 mmHg 55%
    10:00 +32°C° 0 mm 2 mps 759 mmHg 45%
    11:00 +34°C° 0 mm 3 mps 758 mmHg 42%
    12:00 +36°C° 0 mm 4 mps 758 mmHg 39%
    13:00 +37°C° 0 mm 5 mps 757 mmHg 36%
    14:00 +36°C° 0 mm 5 mps 756 mmHg 38%
    15:00 +35°C° 0 mm 5 mps 756 mmHg 39%
    16:00 +34°C° 0 mm 5 mps 756 mmHg 41%
    17:00 +32°C° 0 mm 5 mps 756 mmHg 48%
    18:00 +30°C° 0 mm 5 mps 757 mmHg 55%
    19:00 +28°C° 0 mm 5 mps 757 mmHg 62%
    20:00 +28°C° 0 mm 4 mps 758 mmHg 64%
    21:00 +27°C° 0 mm 3 mps 758 mmHg 66%
    22:00 +27°C° 0 mm 3 mps 759 mmHg 69%
    23:00 +27°C° 0 mm 2 mps 759 mmHg 69%
    Show more